Flag for U.S.A. Weather past 2 weeks in Shreveport, Louisiana, U.S.A.

Now
65 °F

Passing clouds.


Feels Like: 65 °F
Forecast: 58 / 78 °F
Wind: No wind

Location: Shreveport Regional Airport

Current Time: Oct 21, 2014 at 9:42:10 PM

Latest Report: Oct 21, 2014 at 8:56 PM


Visibility: 10 mi

Pressure: 30.04 "Hg

Humidity: 87%

Dew point: 61 °F

Location of ShreveportLocation

Historic Weather in Shreveport — Graph

°F

Shreveport temperature yesterday

Maximum temperature yesterday: 78 °F (at 3:56 PM)
Minimum temperature yesterday: 49 °F (at 5:56 AM)
Average temperature yesterday: 63 °F

Past Weeks' High & Low Weather Summary

 TemperatureHumidityPressure
High89 °F (Oct 10, 1:56 PM)100% (Oct 11, 4:56 AM)30.19 "Hg (Oct 11, 4:56 AM)
Low48 °F (Oct 15, 3:56 AM)27% (Oct 14, 4:56 PM)29.65 "Hg (Oct 13, 5:56 AM)
Average69 °F75%29.96 "Hg
* Reported Oct 6 7:56 PM — Oct 21 7:56 PM, Shreveport, Weather by CustomWeather, © 2014

Note: Actual official high and low records may vary slightly from our data, if they occured in-between our weather recording intervals... More about our weather records

Advertising

Shreveport weather history for previous 24 hours

 ConditionsComfort  
Time TempWeatherWind HumidityBarometerVisibility
7:56 PM
Oct 21
67 °FClear.3 mph81%30.03 "Hg10 mi
6:56 PM75 °FSunny.5 mph62%30.01 "Hg10 mi
5:56 PM79 °FPassing clouds.7 mph54%30.00 "Hg10 mi
4:56 PM81 °FPassing clouds.5 mph49%30.01 "Hg10 mi
3:56 PM82 °FPassing clouds.6 mph48%30.01 "Hg10 mi
2:56 PM81 °FScattered clouds.5 mph49%30.03 "Hg10 mi
1:56 PM80 °FScattered clouds.5 mph52%30.05 "Hg10 mi
12:56 PM79 °FScattered clouds.No wind52%30.07 "Hg10 mi
11:56 AM76 °FPartly sunny.5 mph56%30.10 "Hg10 mi
10:56 AM75 °FSunny.3 mph54%30.11 "Hg10 mi
9:56 AM69 °FSunny.3 mph66%30.10 "Hg10 mi
8:56 AM64 °FPassing clouds.No wind84%30.09 "Hg10 mi
7:56 AM57 °FPassing clouds.No wind90%30.07 "Hg10 mi
6:56 AM55 °FPassing clouds.No wind93%30.06 "Hg10 mi
5:56 AM55 °FClear.No wind93%30.05 "Hg10 mi
4:56 AM56 °FClear.No wind93%30.03 "Hg10 mi
3:56 AM57 °FClear.No wind90%30.02 "Hg10 mi
2:56 AM56 °FClear.No wind93%30.02 "Hg10 mi
1:56 AM56 °FClear.3 mph93%30.02 "Hg10 mi
12:56 AM57 °FClear.No wind90%30.03 "Hg10 mi
11:56 PM
Oct 20
59 °FClear.No wind87%30.04 "Hg10 mi
10:56 PM61 °FClear.No wind81%30.04 "Hg10 mi
9:56 PM61 °FClear.3 mph81%30.04 "Hg10 mi
Weather by CustomWeather, © 2014

See weather overviewHow to use our weather pages